EW3225 Weather Reports


Display with metric or nautical units.
time (UTC)temp
F
wind
direction
speed
MPH
gust
MPH
rain 1hr
in
rain 24hr
in
rain mn
in
humidity
%
barometer
mb
20260508001604 72 218 0.0 7.0 0.00 0.00 0.00 65 1013.5
20260508000058 72 213 1.0 6.0 0.00 0.00 0.00 64 1013.5
20260507234558 72 174 0.0 4.0 0.00 0.00 0.00 65 1013.6
20260507233057 72 207 1.0 5.0 0.00 0.00 0.00 65 1013.6
20260507231557 73 201 1.0 7.0 0.00 0.00 0.00 64 1013.5
20260507230056 74 215 2.0 10.0 0.00 0.00 0.00 63 1013.6
20260507224555 74 250 0.0 4.0 0.00 0.00 0.00 62 1013.7
20260507223053 74 197 0.0 5.0 0.00 0.00 0.00 62 1013.9
20260507221552 74 220 1.0 7.0 0.00 0.00 0.00 62 1014.0
20260507220050 74 175 1.0 5.0 0.00 0.00 0.00 63 1014.2
20260507214549 74 240 0.0 6.0 0.00 0.00 0.00 63 1014.4
20260507213054 74 240 0.0 5.0 0.00 0.00 0.00 62 1014.5
20260507211551 74 247 1.0 7.0 0.00 0.00 0.00 62 1014.5
20260507210044 75 178 2.0 9.0 0.00 0.00 0.00 61 1014.6
20260507204543 76 185 1.0 6.0 0.00 0.00 0.00 61 1014.6
20260507203043 76 257 1.0 7.0 0.00 0.00 0.00 62 1014.6
20260507201547 76 237 0.0 4.0 0.00 0.00 0.00 61 1014.7
20260507200043 76 223 1.0 6.0 0.00 0.00 0.00 61 1014.9
20260507194539 76 186 1.0 6.0 0.00 0.00 0.00 61 1014.9
20260507193041 76 204 1.0 6.0 0.00 0.00 0.00 60 1015.1
20260507191535 76 215 0.0 2.0 0.00 0.00 0.00 61 1015.2
20260507190033 75 190 0.0 8.0 0.00 0.00 0.00 62 1015.4
20260507184533 75 195 1.0 6.0 0.00 0.00 0.00 63 1015.5
20260507183033 75 201 1.0 7.0 0.00 0.00 0.00 62 1015.7
20260507181529 75 176 1.0 7.0 0.00 0.00 0.00 62 1015.6
20260507180039 74 340 0.0 4.0 0.00 0.00 0.00 61 1015.7
20260507174525 73 340 0.0 6.0 0.00 0.00 0.00 64 1015.7
20260507173027 73 5 0.0 5.0 0.00 0.00 0.00 64 1015.9
20260507171519 72 215 0.0 4.0 0.00 0.00 0.00 65 1016.0
20260507170031 71 217 0.0 2.0 0.00 0.00 0.00 67 1016.0
20260507164512 70 232 0.0 3.0 0.00 0.00 0.00 69 1016.1
20260507163008 68 292 0.0 0.0 0.00 0.00 0.00 74 1016.2
20260507161506 66 292 0.0 2.0 0.00 0.00 0.00 77 1016.2
20260507160002 65 288 0.0 2.0 0.00 0.00 0.00 81 1016.3
20260507154557 64 288 0.0 0.0 0.00 0.00 0.00 87 1016.4
20260507153104 62 285 0.0 0.0 0.00 0.00 0.00 90 1016.6
20260507151549 60 284 0.0 3.0 0.00 0.00 0.00 92 1016.6
20260507150050 59 278 0.0 0.0 0.00 0.00 0.00 94 1016.6
20260507144545 58 278 0.0 0.0 0.00 0.00 0.00 94 1016.5
20260507143051 56 277 0.0 0.0 0.00 0.00 0.00 94 1016.4
20260507141540 55 277 0.0 0.0 0.00 0.00 0.00 94 1016.2
20260507140039 53 277 0.0 0.0 0.00 0.00 0.00 93 1016.1
20260507134539 52 277 0.0 0.0 0.00 0.00 0.00 93 1016.0
20260507133044 52 277 0.0 0.0 0.00 0.00 0.00 92 1015.8
20260507131546 52 277 0.0 0.0 0.00 0.00 0.00 92 1015.6
20260507130038 52 277 0.0 0.0 0.00 0.00 0.00 92 1015.5
20260507124537 52 277 0.0 0.0 0.00 0.00 0.00 92 1015.6
20260507123034 52 277 0.0 0.0 0.00 0.00 0.00 92 1015.5
20260507121534 53 277 0.0 0.0 0.00 0.00 0.00 91 1015.5
20260507120032 53 277 0.0 0.0 0.00 0.00 0.00 91 1015.6
20260507114529 53 277 0.0 0.0 0.00 0.00 0.00 91 1015.6
20260507113027 54 277 0.0 0.0 0.00 0.00 0.00 91 1015.7
20260507111526 54 277 0.0 0.0 0.00 0.00 0.00 91 1015.8
20260507110025 54 277 0.0 0.0 0.00 0.00 0.00 91 1015.8
20260507104523 54 277 0.0 0.0 0.00 0.00 0.00 90 1015.9
20260507103022 54 277 0.0 0.0 0.00 0.00 0.00 90 1015.9
20260507101522 54 277 0.0 0.0 0.00 0.00 0.00 90 1016.0
20260507100020 54 277 0.0 0.0 0.00 0.00 0.00 89 1016.0
20260507094520 54 277 0.0 0.0 0.00 0.00 0.00 89 1016.0
20260507093018 55 277 0.0 0.0 0.00 0.00 0.00 89 1016.2
20260507091515 55 277 0.0 0.0 0.00 0.00 0.00 89 1016.4
20260507090012 55 277 0.0 0.0 0.00 0.00 0.00 88 1016.6
20260507084532 55 277 0.0 0.0 0.00 0.00 0.00 88 1016.8
20260507083009 55 277 0.0 0.0 0.00 0.00 0.00 88 1016.8
20260507081510 56 277 0.0 0.0 0.00 0.00 0.00 87 1016.9
20260507080008 56 277 0.0 0.0 0.00 0.00 0.00 87 1017.0
20260507074508 56 277 0.0 0.0 0.00 0.00 0.00 86 1016.9
20260507073004 56 277 0.0 0.0 0.00 0.00 0.00 86 1016.9
20260507071502 56 277 0.0 0.0 0.00 0.00 0.00 85 1016.9
20260507070108 57 277 0.0 0.0 0.00 0.00 0.00 85 1017.0
20260507064600 57 277 0.0 0.0 0.00 0.00 0.00 85 1017.1
20260507063059 58 277 0.0 0.0 0.00 0.00 0.00 84 1017.2
20260507061558 58 277 0.0 0.0 0.00 0.00 0.00 83 1017.2
20260507054613 58 277 0.0 0.0 0.00 0.00 0.00 81 1017.3
20260507053107 58 277 0.0 0.0 0.00 0.00 0.00 80 1017.2
20260507051600 59 277 0.0 0.0 0.00 0.00 0.00 79 1017.1
20260507050058 59 277 0.0 0.0 0.00 0.00 0.00 79 1017.1
20260507044559 59 277 0.0 0.0 0.00 0.00 0.00 78 1017.1
20260507043055 60 277 0.0 0.0 0.00 0.00 0.00 76 1017.1
20260507041603 60 277 0.0 0.0 0.00 0.00 0.00 75 1017.0
20260507040055 61 277 0.0 0.0 0.00 0.00 0.00 74 1016.9
20260507034557 61 277 0.0 0.0 0.00 0.00 0.00 73 1016.8
20260507033055 62 277 0.0 0.0 0.00 0.00 0.00 71 1016.7
20260507031553 63 277 0.0 0.0 0.00 0.00 0.00 71 1016.6
20260507030052 63 277 0.0 0.0 0.00 0.00 0.00 70 1016.4
20260507024555 64 277 0.0 0.0 0.00 0.00 0.00 69 1016.3
20260507023052 64 277 0.0 2.0 0.00 0.00 0.00 69 1016.2
20260507021608 65 275 0.0 1.0 0.00 0.00 0.00 69 1016.0
20260507020107 66 276 0.0 5.0 0.00 0.00 0.00 68 1015.9
20260507014617 67 291 0.0 2.0 0.00 0.00 0.00 68 1015.8
20260507013052 67 291 0.0 3.0 0.00 0.00 0.00 66 1015.7
20260507011557 68 281 0.0 3.0 0.00 0.00 0.00 66 1015.6
20260507010047 0 0.0 0.0 0.00 0.00 0.00 1015.6
20260507004541 0 0.0 0.0 0.00 0.00 0.00 1015.5
20260507003037 0 0.0 0.0 0.00 0.00 0.00 1015.5